ATLAS 5 CENTAUR DEB, 43988

Orbit data source: Space-Track

ATLAS 5 CENTAUR DEB, 43988 is space debris in HEO originally from a launch on Wed, 17 Sep 2014 UTC launched from the Air Force Eastern Test Range (AFETR). Debris objects in space refer to the collection of defunct objects orbiting the Earth. Examples of debris include non-operational satellites, rocket bodies, and fragments generated from explosions, collisions, or faulty payload assembly.

Loading next visibility...
Identifier
43988, 2014-055AT
Orbit
HEO
Country
Flag of USUS
Related business
Flag of USUnited Launch Alliance/Lockheed Martin (US)
Manufacturer
Unknown
Mission
Spacecraft
Bus & Motor
Unknown
Mass
Unknown
Launch date (UTC)
2014-09-17 (12 years ago)
Launch vehicle
Unknown
Launch site
Air Force Eastern Test Range (AFETR)
Object type
Payload
Rocket body
Debris
Shape & HBR
Unknown shape, 1.1 m
Radar Cross Section
Small (<0.1 m²)

Expand to show TLE details & history
Last TLE update: 1 week ago

TLE from 1 week ago
0 ATLAS 5 CENTAUR DEB
1 43988U 14055AT  26110.83587071 -.00000036  00000-0  00000-0 0  9996
2 43988  20.1398 143.6464 4760863 165.7357 214.7529  1.87307743 52291
Epoch: 2026-04-20T20:03Z
TLE epoch observation values (Epoch: 2026-04-20T20:03:39.229Z)
Latitude
-0.00007°
Longitude
-6.14375°
Altitude
33,512.646 km
Speed
2.376 km/s
True Right ascension
09h 34m 45s
True Declination
0° 00' 00"
Sunlit
Object was in daylight at epoch
Visualization orbit readout
Latitude
Unknown
Longitude
Unknown
Altitude
Unknown
Speed
Unknown
Apparent Right ascension
Unknown
Apparent Declination
Unknown
Sunlit
N/A
Visualization observer readout
Local Sidereal Time
09:32:53
Azimuth
Unknown
Elevation
Unknown
Doppler factor
Unknown
Orbital elements
Apogee altitude
34,658.645 km
Perigee altitude
8,187.226 km
Semi-major axis
27,801.072 km
Eccentricity
0.47609
Inclination
20.1398°
RAAN
143.6464°
Arg. of periapsis
165.7357°
True anomaly
194.28833°
Mean anomaly
214.7529°
Eccentric anomaly
203.76176°
Mean motion
0.46822 °/min
Orbital period
768.87 mins
BSTAR
0
Loading maneuver chart data...
Computing Atmospheric mass density...

Documentation

Showing up to 5 results
|